Wind_Speed
22 21 21 21 22 21 21 21 21 22 22 22 23 23 23 24 25 26 26 26 25 25 24 24 24 23 23 24 24 24 25 25 25 24 24 24 24 24 24 25 26 25 24 23 23 23 24 24 22 20 18 17 15 13 14 17 22 28 35 40 42 42 42
21 21 20 21 21 20 20 20 21 22 22 22 22 22 22 22 23 24 24 25 25 24 24 24 24 24 24 24 24 23 24 25 24 24 24 24 25 25 24 25 26 26 26 26 26 26 26 26 25 24 22 21 18 16 15 15 15 17 23 32 39 43 43
20 19 19 19 19 19 19 20 21 22 22 22 22 22 22 22 22 22 22 23 23 24 23 23 23 24 24 24 24 24 24 24 24 24 24 24 24 24 25 26 27 27 28 29 29 28 28 28 27 25 24 25 25 25 24 22 20 18 18 20 27 36 40
18 17 17 17 18 18 18 19 20 21 22 22 22 22 21 21 21 21 21 21 22 22 22 22 22 22 23 23 23 24 24 24 24 24 23 23 23 23 24 26 27 27 28 29 30 30 30 30 29 28 27 28 29 29 28 25 23 21 20 19 20 26 31
16 15 16 17 17 18 18 18 19 19 20 21 21 21 21 21 21 20 20 20 20 20 21 21 21 21 21 22 22 23 23 24 24 23 23 23 22 22 24 25 26 26 27 28 29 29 30 30 30 30 29 28 28 29 28 27 25 23 22 21 21 23 24
15 14 15 17 17 18 18 18 19 19 19 19 20 20 20 20 20 20 20 20 20 20 20 20 20 20 21 21 21 22 23 23 23 22 22 22 22 22 22 24 25 26 26 27 27 27 28 27 28 28 27 26 27 27 26 25 24 23 23 22 23 23 23
15 15 16 16 17 18 18 19 19 18 19 19 19 19 19 19 18 19 19 19 19 19 19 19 19 19 20 20 21 21 22 22 21 21 21 21 21 21 21 22 24 25 25 25 26 26 26 26 25 25 24 24 24 24 24 23 22 23 23 22 23 24 23
15 15 16 17 18 18 19 19 19 19 19 18 18 18 18 18 18 18 18 18 19 19 19 19 19 19 19 20 20 21 21 21 21 20 20 20 20 20 19 20 22 23 24 24 24 24 24 24 24 23 23 22 22 22 22 21 21 22 21 21 22 24 23
15 16 17 18 19 19 19 20 20 20 19 19 18 18 18 18 18 18 18 18 18 18 18 18 19 19 19 19 20 20 20 21 20 20 19 19 19 19 18 18 19 20 22 22 22 23 23 23 22 22 21 20 20 21 21 20 20 21 20 20 22 22 21
17 18 19 19 20 20 20 21 21 21 20 20 19 19 19 18 19 19 19 19 19 18 18 18 18 18 18 19 19 19 20 20 20 19 19 19 18 18 18 17 17 18 19 20 21 21 21 21 21 20 20 19 19 19 19 19 19 19 18 18 20 20 18
19 19 20 21 21 21 21 21 21 21 21 21 20 20 20 19 19 19 19 19 19 19 19 18 17 17 17 18 18 18 19 19 19 18 18 18 18 18 18 17 17 16 17 18 19 19 19 19 19 18 18 19 18 18 18 18 19 19 18 18 19 18 17
21 21 21 22 22 22 21 21 21 21 21 21 21 21 21 20 20 19 19 19 19 19 20 19 19 18 17 17 17 17 17 17 18 17 17 17 17 17 17 17 17 16 16 16 17 18 18 18 18 18 18 18 18 18 18 18 19 19 19 19 19 19 18
23 23 23 23 23 23 22 22 21 21 21 21 21 20 20 20 20 18 17 17 18 19 19 20 20 20 19 18 18 18 18 17 17 17 16 16 16 16 17 17 17 17 17 17 17 17 17 18 18 18 18 18 19 19 19 20 20 20 20 21 21 21 20
26 25 24 24 24 24 23 23 22 21 20 21 21 21 20 19 18 18 17 16 17 17 18 18 19 20 20 20 19 19 19 19 18 18 17 17 17 17 17 17 17 18 18 18 18 18 18 18 18 19 19 20 20 20 20 21 22 23 23 23 23 23 23
29 28 26 26 25 25 25 24 23 22 21 21 21 22 21 19 18 18 17 17 17 17 17 17 17 18 18 19 19 19 20 20 20 20 20 19 19 19 18 18 18 18 19 19 20 20 20 20 20 20 21 22 22 22 22 22 23 24 25 26 26 26 26
30 30 29 29 28 28 27 26 24 23 23 22 22 22 22 22 21 20 19 18 19 18 18 18 17 17 17 17 18 18 19 19 20 20 20 20 20 20 20 20 20 20 20 20 20 21 22 22 23 23 23 24 24 25 25 25 25 25 26 28 29 29 29
33 34 34 34 32 31 30 29 28 27 26 25 24 24 24 24 24 23 22 21 20 20 20 20 20 19 18 18 18 18 18 19 19 19 20 20 19 20 20 20 20 20 19 20 20 20 21 22 23 24 25 25 26 27 27 28 28 28 28 29 30 31 31
33 35 37 38 37 35 34 33 32 30 29 28 28 27 26 25 26 26 25 24 23 22 22 22 22 22 21 21 20 20 20 20 20 20 20 20 20 20 20 20 20 20 19 19 19 20 20 21 22 22 23 24 25 26 27 28 29 30 30 30 31 31 32
33 33 34 36 36 37 37 37 36 35 34 33 32 31 29 28 28 28 27 26 26 26 25 25 24 24 24 23 23 23 23 23 23 22 21 22 22 22 22 22 22 22 22 22 22 22 23 23 23 23 24 24 25 26 26 27 28 29 30 30 30 31 32
36 35 35 35 36 36 36 37 37 37 37 37 35 35 33 31 31 30 30 29 29 29 29 29 28 27 26 25 25 25 26 26 26 26 25 25 25 25 25 25 25 25 25 26 27 27 27 27 27 26 26 26 27 27 27 28 28 29 30 30 31 31 32
41 41 41 41 40 40 39 39 39 38 38 39 39 38 36 34 32 33 34 34 33 32 30 30 30 30 29 28 27 26 27 28 28 28 28 28 28 28 29 29 29 29 29 29 29 28 28 29 28 28 28 28 28 28 28 29 29 30 30 31 32 33 34
44 44 44 44 44 45 44 43 42 41 41 41 41 41 38 35 33 32 31 31 32 32 32 32 33 33 31 30 29 29 30 31 31 31 30 31 32 32 33 34 34 34 34 34 33 32 31 31 30 30 31 31 31 31 31 31 31 32 32 32 32 33 34
46 46 46 45 45 46 47 47 46 45 45 46 45 44 42 39 37 38 37 35 32 32 34 35 36 37 34 31 31 32 34 35 36 35 35 35 36 36 37 38 38 38 38 37 37 37 36 36 35 35 36 36 36 36 36 36 36 36 36 36 35 35 36
49 48 48 48 47 47 48 48 48 47 47 48 49 49 49 46 44 46 48 47 42 39 38 38 39 41 40 37 34 34 36 38 39 40 40 40 40 40 41 41 41 41 41 40 41 40 40 40 40 40 40 40 41 41 41 41 41 41 41 41 40 41 41
51 51 51 50 50 49 48 48 49 49 49 49 50 51 52 51 50 50 53 52 49 47 46 45 44 45 45 43 40 38 40 41 41 42 42 42 42 42 43 44 43 42 42 43 43 44 43 43 43 43 43 43 43 44 44 44 44 45 45 45 45 45 45
50 50 50 49 49 49 49 48 48 48 49 49 50 51 52 53 52 52 52 53 51 50 49 49 49 49 48 47 46 44 44 45 45 44 44 44 44 44 45 46 45 45 44 45 45 46 46 46 46 46 46 45 45 45 46 46 47 48 48 49 49 49 49
49 49 49 49 48 48 49 48 47 49 50 51 51 52 52 52 53 53 52 52 52 52 50 50 51 52 51 50 49 49 48 48 48 47 47 47 47 47 48 48 48 48 48 48 48 48 49 49 49 49 49 48 48 47 47 47 48 49 50 51 51 51 52
50 50 50 50 50 50 50 50 50 51 52 53 54 54 53 53 53 54 54 53 54 54 52 51 51 53 53 52 52 53 53 52 51 50 50 50 50 50 50 50 50 50 51 51 51 51 52 52 52 52 51 51 50 50 50 50 50 51 51 52 52 52 53
51 51 51 52 52 53 53 53 53 54 54 55 55 56 57 56 55 55 56 57 57 57 55 53 52 52 52 53 54 55 55 55 54 53 53 53 53 53 53 53 52 53 53 54 54 54 55 55 55 54 53 53 53 53 53 53 54 54 54 54 54 54 54
51 52 52 52 53 53 53 53 54 55 56 57 57 58 59 60 58 57 57 57 58 58 57 55 53 52 52 52 54 54 54 54 54 55 55 55 55 54 54 54 54 54 55 56 56 56 56 56 56 55 54 54 55 54 55 55 55 55 55 55 55 55 54
52 52 52 53 53 53 54 54 54 55 56 57 58 59 59 59 58 57 56 56 56 56 55 55 54 54 53 52 52 52 52 52 53 53 54 54 54 54 54 54 54 55 55 55 56 56 56 56 56 55 55 55 56 55 55 55 55 55 54 54 54 53 53
52 52 53 53 53 54 54 54 54 55 55 56 56 57 57 57 57 56 55 54 54 53 53 54 54 54 53 52 51 51 51 51 51 52 52 52 52 52 53 53 53 53 54 54 54 54 54 54 54 53 54 55 55 55 55 55 54 53 52 52 51 51 51
52 53 53 53 54 54 54 55 55 55 55 55 56 56 56 56 55 54 54 53 53 53 53 53 53 53 53 52 51 51 50 50 51 51 51 51 51 51 52 52 52 52 52 52 52 52 52 53 52 53 53 54 54 54 54 54 53 53 52 51 52 52 53
52 52 52 53 53 54 54 55 55 55 54 54 55 55 54 54 53 53 53 53 53 53 53 52 52 52 52 52 51 51 51 50 50 50 50 50 51 51 52 52 52 51 52 52 52 52 52 52 53 53 53 53 54 54 54 53 53 52 52 52 53 53 53
50 51 51 52 52 53 53 54 54 54 54 55 55 54 53 53 52 51 51 52 52 52 52 52 52 52 52 52 51 51 50 51 50 50 50 50 50 51 52 53 52 51 52 52 52 52 52 52 53 53 53 53 54 54 54 53 52 52 52 52 51 51 52
50 50 50 51 51 51 51 52 53 53 53 54 54 54 53 52 51 49 50 50 50 50 51 51 52 52 52 52 51 50 50 51 50 50 50 50 50 51 52 52 51 51 52 52 52 52 52 52 53 53 53 54 54 54 54 53 53 53 52 52 52 52 52
49 49 50 50 50 50 50 50 51 51 51 52 53 52 51 49 48 48 48 48 48 48 49 50 51 51 51 51 51 51 51 51 51 50 50 50 50 51 51 51 51 51 51 52 52 52 52 52 52 53 53 53 54 54 54 54 55 54 53 53 53 53 53
Wind_Direction
294 290 286 282 280 278 275 275 276 276 275 274 274 271 268 267 266 266 266 266 266 266 265 264 264 263 263 264 266 267 267 267 267 265 263 262 259 257 256 258 261 261 258 258 259 260 259 260 262 267 273 275 267 258 254 253 254 251 247 246 246 248 250
292 288 284 281 280 278 276 275 275 276 275 274 273 272 270 268 266 265 265 265 266 265 264 264 263 263 262 261 262 263 264 265 265 264 262 259 259 258 258 259 260 258 258 259 260 262 262 264 268 271 273 271 269 272 278 276 274 268 258 252 248 248 250
289 286 283 280 279 277 277 276 275 275 275 274 273 271 270 269 268 267 265 265 265 265 264 263 262 262 261 261 261 261 262 263 263 262 261 259 257 257 257 258 258 257 258 259 260 261 262 266 270 271 271 270 271 276 280 279 278 278 274 264 251 247 246
283 282 282 279 277 276 275 274 273 273 273 273 272 271 269 268 268 267 267 267 266 267 266 265 264 263 262 262 262 262 262 263 263 262 261 260 257 255 255 256 257 257 257 258 259 259 262 266 269 270 270 271 273 275 277 278 277 277 276 272 261 251 249
280 279 280 278 277 275 274 272 272 272 272 271 271 270 270 269 268 267 267 267 267 267 267 266 267 266 265 264 263 264 264 265 265 263 262 260 258 255 254 256 257 257 257 258 259 260 262 264 266 268 269 268 269 270 273 274 274 273 271 269 266 262 258
279 281 280 277 276 274 273 272 271 271 270 271 271 271 270 269 269 269 269 269 268 268 268 267 267 267 268 267 266 266 266 267 267 265 263 261 258 255 253 254 256 258 258 259 260 261 261 262 263 264 265 264 264 264 265 266 266 265 264 263 263 263 263
279 283 282 278 275 273 273 273 272 271 270 270 271 271 271 270 270 270 270 271 271 271 270 269 268 268 268 268 268 268 268 269 270 269 267 264 262 258 255 254 256 258 259 260 261 261 262 262 261 262 262 261 261 261 262 261 260 259 257 257 258 259 261
278 282 281 277 275 274 275 274 274 273 272 271 271 271 272 272 272 272 271 271 271 272 273 273 272 271 270 270 270 270 270 271 271 272 271 269 268 265 260 256 255 257 259 259 260 261 262 262 262 263 263 261 260 261 262 261 259 258 256 255 254 257 261
278 281 279 276 274 274 274 274 274 275 274 274 273 273 273 274 274 273 272 272 271 271 272 273 274 274 274 274 273 273 273 273 273 273 273 272 271 270 268 264 259 258 259 260 260 261 262 263 264 263 263 262 260 259 260 260 259 258 256 254 254 257 262
276 279 277 273 272 273 272 271 272 274 275 275 275 275 274 274 275 275 274 273 272 270 270 270 271 273 274 275 276 276 276 276 277 276 275 274 273 272 272 270 267 262 260 261 261 261 262 263 263 262 261 260 259 258 258 257 257 256 255 254 256 257 258
273 274 272 270 269 269 269 270 271 273 275 277 278 278 278 276 274 274 274 273 272 271 269 267 267 268 270 272 274 276 276 277 278 278 277 275 274 273 273 272 271 267 264 262 262 262 263 263 263 262 260 259 259 259 258 257 256 256 254 253 255 256 254
269 268 266 265 264 265 266 267 268 271 274 277 280 281 282 281 279 276 274 273 272 270 268 266 264 263 263 265 268 270 273 275 276 277 277 276 274 272 272 272 272 270 267 264 262 263 263 265 265 263 261 259 259 260 260 261 260 258 257 257 257 257 255
265 264 263 262 260 260 261 261 262 265 269 273 277 279 282 284 283 281 278 275 273 270 268 266 264 262 261 260 261 264 266 268 270 272 273 273 274 273 271 270 270 270 270 268 266 264 263 264 266 267 267 264 262 261 262 264 266 265 263 262 262 262 260
260 260 260 260 260 258 257 258 259 260 264 269 273 274 276 278 279 279 278 275 273 271 269 267 265 264 262 261 260 261 263 265 267 267 268 268 268 269 269 269 268 268 268 269 268 267 265 263 263 265 267 268 268 267 265 265 268 270 271 269 268 267 267
259 259 260 260 259 256 257 258 259 260 261 264 269 271 270 269 269 272 273 271 270 268 266 266 265 264 263 263 261 260 261 263 265 265 266 266 265 265 265 266 267 267 267 268 268 268 269 267 266 264 264 265 267 267 268 267 267 269 271 273 273 272 272
260 260 261 262 260 258 258 259 260 261 260 260 263 266 267 265 264 264 264 264 266 267 265 264 263 262 262 262 261 260 259 259 260 262 264 266 268 268 267 267 267 268 268 269 269 270 271 271 271 271 269 268 267 266 267 267 267 267 269 271 273 274 274
264 264 262 261 260 260 259 260 262 263 262 263 264 263 262 263 263 262 260 260 263 265 266 266 265 264 262 262 261 261 260 259 259 260 262 264 266 268 268 268 268 268 268 269 271 272 272 273 274 274 274 274 273 271 270 268 268 268 268 270 271 272 273
267 267 264 260 259 260 260 262 263 261 260 263 264 263 262 260 261 261 259 260 262 263 264 265 265 264 262 262 262 262 262 261 260 260 259 261 262 262 263 264 264 264 265 267 269 271 273 275 277 277 278 278 278 278 277 276 274 272 271 271 272 273 274
266 267 266 263 262 263 263 263 264 262 260 261 262 264 264 261 259 258 256 257 259 259 259 259 260 261 262 261 261 262 264 263 262 262 262 261 261 260 260 259 259 260 260 263 266 270 273 275 276 278 279 280 281 282 283 283 282 281 279 278 277 277 277
265 264 264 265 265 266 265 264 267 268 265 263 265 267 266 262 260 258 256 257 257 256 257 258 257 256 256 258 259 260 262 264 264 264 265 265 265 265 266 264 264 265 265 266 267 269 272 274 275 276 277 278 280 281 282 284 284 284 284 283 282 281 281
264 264 264 264 265 266 266 266 269 270 267 264 265 267 267 264 264 263 260 258 256 254 255 257 257 256 254 253 256 259 260 262 265 265 266 267 268 270 272 272 273 274 274 273 272 273 275 276 275 276 277 278 279 281 282 283 284 284 284 283 282 281 280
265 266 265 265 265 266 267 267 267 268 269 268 266 267 266 263 262 263 261 259 256 252 252 254 257 261 259 252 250 255 258 260 262 263 264 266 267 269 271 273 275 276 277 277 277 279 280 279 278 278 278 279 281 282 283 284 284 285 285 285 284 283 282
265 265 265 265 264 265 266 267 267 266 267 268 268 268 267 263 258 256 259 266 265 257 255 256 258 263 267 261 253 252 256 260 262 262 262 263 265 267 269 271 273 275 277 278 279 280 281 281 281 280 280 280 281 282 283 284 284 284 284 284 285 285 285
263 264 264 265 265 264 264 266 266 266 265 266 267 267 268 267 264 261 263 269 270 266 263 263 262 264 269 270 265 259 258 261 262 263 264 265 266 268 270 271 272 273 276 278 279 281 282 282 282 281 281 281 282 283 283 284 284 284 284 284 284 285 285
262 263 263 264 265 265 265 264 265 266 266 266 266 267 268 269 268 267 267 269 269 268 267 267 266 266 267 270 270 267 264 263 263 264 265 265 267 268 270 271 271 272 273 276 278 280 281 282 282 282 282 283 283 284 284 284 284 284 284 283 283 284 284
261 262 263 263 264 264 265 265 265 266 267 267 267 267 268 269 269 269 269 270 269 267 266 266 267 268 268 269 270 268 266 264 264 265 265 266 267 268 268 269 271 272 273 274 276 277 279 280 281 282 282 283 284 285 285 285 285 284 284 283 283 283 283
260 260 261 261 262 263 263 264 266 268 269 269 269 269 268 269 270 271 271 271 271 270 268 268 268 269 270 271 271 270 267 266 265 266 266 267 269 270 270 270 272 273 273 274 275 276 277 278 279 281 282 284 284 284 283 283 282 282 282 282 283 283 282
259 259 259 259 259 260 260 260 260 263 265 267 268 269 270 269 269 271 272 271 271 272 272 270 269 270 271 272 272 271 270 270 269 268 268 269 270 271 272 273 274 275 275 275 276 276 277 278 278 280 281 283 283 282 281 280 279 279 279 280 281 280 280
260 259 259 259 259 259 259 259 257 257 258 260 262 264 267 268 268 269 270 271 271 272 273 272 270 269 269 269 270 270 270 271 271 270 269 270 270 271 272 274 274 275 275 276 276 277 277 278 279 280 280 280 279 279 279 279 279 279 280 279 279 277 276
261 261 260 260 260 260 260 260 259 258 258 258 259 260 263 266 267 268 268 269 270 271 272 272 271 270 269 269 269 269 270 270 270 270 270 270 271 271 272 272 273 273 274 275 275 276 277 277 278 279 279 278 277 277 277 277 278 279 280 279 278 277 276
262 262 262 262 262 262 262 261 261 261 261 260 260 261 263 265 266 267 268 268 269 270 270 271 271 271 271 271 271 271 271 271 271 271 271 271 271 272 271 272 272 272 273 273 274 274 275 275 276 276 275 275 276 276 276 276 277 277 277 277 276 276 275
262 262 262 263 263 263 264 264 263 263 263 263 263 263 264 264 265 267 268 269 269 268 269 270 271 271 272 273 273 272 272 272 272 272 271 271 271 271 272 272 272 272 272 272 273 273 273 273 274 274 273 274 274 275 275 275 276 276 275 273 272 272 273
262 262 262 262 262 263 263 264 264 264 264 264 264 264 264 265 266 267 268 268 268 268 269 269 270 271 272 273 273 273 273 272 272 272 272 272 272 272 272 272 272 272 273 273 273 273 273 273 273 273 273 274 274 274 274 274 275 274 272 271 271 271 272
264 263 263 263 263 263 263 264 264 265 265 265 265 265 265 265 266 266 266 267 267 268 268 269 269 270 270 271 271 272 272 272 271 272 272 272 272 272 272 273 273 274 274 274 274 273 273 273 274 274 274 274 274 273 274 274 274 274 273 272 271 271 271
265 265 265 264 264 264 264 265 265 266 266 267 267 267 267 267 267 267 266 266 266 266 267 267 268 269 269 269 270 270 271 271 271 271 271 272 272 272 273 273 274 274 274 274 274 274 274 273 273 273 273 272 272 273 274 274 274 274 273 272 271 271 270
265 265 265 265 265 265 265 265 266 266 267 268 268 268 268 269 269 268 267 267 267 266 266 266 266 267 267 268 268 269 269 270 271 271 271 272 272 272 272 273 273 274 274 274 274 274 274 273 273 272 272 272 272 273 274 274 274 274 273 272 271 271 270
265 265 265 264 265 265 265 265 266 267 268 269 269 269 269 270 270 269 268 268 267 266 265 264 264 265 266 266 267 267 268 269 270 270 271 271 272 272 273 273 274 274 273 273 274 274 274 273 272 272 272 272 273 274 274 274 274 273 272 271 271 270 270
Height
5749 5749 5749 5749 5749 5749 5750 5750 5750 5750 5750 5750 5751 5751 5752 5753 5753 5753 5753 5753 5754 5755 5756 5756 5756 5757 5757 5757 5758 5758 5758 5758 5759 5760 5761 5761 5761 5763 5764 5764 5765 5766 5767 5767 5767 5768 5769 5770 5770 5771 5772 5772 5772 5772 5773 5774 5775 5776 5777 5778 5779 5780 5782
5747 5747 5747 5747 5747 5747 5747 5747 5747 5747 5748 5748 5748 5748 5749 5750 5750 5750 5751 5751 5751 5752 5752 5753 5753 5753 5753 5754 5754 5755 5755 5755 5756 5757 5758 5759 5759 5760 5761 5761 5761 5763 5764 5764 5765 5766 5766 5767 5767 5768 5769 5769 5769 5770 5771 5772 5772 5773 5773 5774 5775 5776 5777
5745 5744 5745 5745 5745 5745 5745 5745 5745 5745 5745 5745 5745 5746 5746 5747 5747 5747 5748 5748 5748 5749 5749 5750 5750 5750 5750 5750 5751 5752 5752 5752 5753 5754 5755 5755 5756 5757 5757 5757 5758 5759 5760 5761 5762 5763 5763 5764 5765 5766 5767 5767 5767 5768 5769 5769 5769 5770 5770 5771 5771 5772 5773
5742 5742 5742 5743 5743 5743 5743 5742 5743 5743 5743 5743 5743 5743 5744 5744 5744 5744 5745 5745 5746 5746 5746 5747 5747 5747 5747 5747 5748 5748 5749 5749 5750 5751 5752 5752 5753 5754 5754 5754 5755 5756 5757 5758 5759 5760 5760 5761 5762 5763 5764 5764 5764 5764 5765 5765 5766 5766 5767 5767 5768 5769 5770
5740 5740 5741 5741 5740 5740 5740 5740 5740 5740 5740 5741 5741 5741 5741 5742 5742 5742 5742 5743 5743 5743 5744 5744 5744 5744 5745 5745 5745 5745 5746 5746 5747 5748 5749 5749 5750 5751 5751 5751 5752 5752 5753 5754 5755 5756 5757 5758 5758 5759 5760 5761 5761 5761 5762 5762 5762 5762 5763 5764 5765 5765 5766
5738 5739 5739 5739 5738 5738 5738 5738 5738 5738 5738 5739 5739 5739 5739 5739 5739 5740 5740 5740 5740 5741 5741 5742 5742 5742 5742 5742 5743 5743 5743 5743 5744 5745 5745 5746 5747 5748 5749 5749 5749 5749 5750 5750 5751 5752 5753 5754 5755 5755 5756 5757 5757 5758 5759 5759 5759 5759 5760 5761 5762 5762 5762
5736 5737 5737 5737 5737 5736 5736 5736 5736 5736 5737 5737 5737 5737 5737 5737 5737 5738 5738 5738 5738 5738 5739 5739 5740 5740 5740 5740 5741 5741 5741 5741 5741 5742 5743 5743 5744 5745 5746 5746 5747 5747 5747 5748 5748 5749 5750 5751 5751 5752 5752 5753 5753 5754 5755 5756 5756 5756 5757 5758 5759 5759 5759
5734 5734 5735 5735 5735 5734 5734 5734 5734 5734 5735 5735 5735 5735 5735 5735 5735 5736 5736 5736 5736 5736 5736 5737 5737 5738 5738 5738 5739 5739 5739 5739 5739 5740 5740 5741 5741 5742 5743 5743 5744 5744 5745 5746 5746 5746 5747 5748 5748 5749 5749 5750 5750 5750 5751 5752 5753 5753 5754 5755 5755 5755 5756
5731 5732 5733 5733 5733 5733 5733 5732 5732 5732 5733 5733 5733 5733 5733 5733 5733 5734 5734 5734 5734 5734 5734 5735 5735 5735 5736 5736 5737 5737 5737 5738 5738 5738 5738 5739 5739 5740 5740 5741 5742 5742 5742 5743 5743 5744 5744 5745 5745 5746 5746 5747 5747 5747 5748 5749 5749 5750 5751 5752 5752 5752 5753
5729 5730 5731 5731 5731 5731 5731 5730 5730 5730 5731 5731 5731 5731 5731 5731 5731 5732 5732 5732 5732 5733 5733 5733 5733 5733 5734 5734 5735 5735 5736 5736 5736 5736 5737 5737 5737 5738 5738 5739 5740 5740 5740 5741 5741 5742 5742 5743 5743 5743 5744 5744 5745 5745 5745 5746 5747 5747 5748 5749 5749 5750 5751
5726 5727 5728 5728 5728 5728 5728 5728 5728 5728 5729 5729 5729 5729 5729 5730 5730 5730 5730 5730 5730 5731 5731 5731 5731 5732 5732 5732 5733 5733 5734 5734 5734 5735 5735 5735 5736 5736 5737 5737 5738 5738 5739 5739 5740 5740 5740 5741 5741 5742 5742 5742 5743 5743 5743 5744 5744 5745 5746 5746 5746 5747 5748
5723 5724 5724 5725 5726 5726 5726 5726 5726 5726 5726 5727 5727 5727 5728 5728 5728 5728 5728 5728 5728 5729 5729 5729 5729 5730 5730 5730 5731 5731 5732 5732 5733 5733 5733 5734 5734 5734 5735 5735 5736 5736 5737 5738 5738 5739 5739 5739 5740 5740 5740 5741 5741 5741 5741 5742 5742 5742 5743 5744 5744 5744 5745
5720 5721 5722 5722 5723 5723 5723 5723 5723 5723 5724 5724 5724 5725 5725 5726 5726 5727 5727 5727 5726 5726 5727 5727 5727 5727 5728 5728 5729 5729 5730 5730 5731 5731 5731 5732 5732 5732 5733 5733 5734 5734 5735 5735 5736 5737 5737 5738 5738 5738 5739 5739 5740 5740 5740 5740 5740 5740 5741 5741 5741 5742 5742
5717 5718 5719 5719 5720 5721 5721 5721 5721 5721 5722 5722 5722 5723 5723 5723 5724 5725 5725 5725 5725 5725 5725 5725 5725 5725 5726 5726 5726 5727 5727 5728 5728 5728 5729 5729 5729 5730 5730 5731 5731 5732 5732 5733 5733 5733 5734 5735 5735 5736 5736 5737 5737 5738 5738 5739 5738 5738 5738 5739 5739 5739 5739
5714 5715 5716 5716 5716 5717 5718 5719 5719 5719 5719 5720 5721 5721 5722 5721 5721 5722 5722 5723 5723 5723 5723 5723 5723 5723 5724 5724 5724 5725 5725 5725 5725 5726 5726 5726 5727 5727 5727 5728 5728 5729 5730 5730 5731 5731 5731 5732 5732 5733 5733 5734 5734 5735 5735 5736 5736 5736 5736 5736 5736 5736 5736
5712 5712 5713 5713 5713 5714 5714 5716 5717 5717 5717 5717 5718 5719 5720 5720 5720 5719 5719 5719 5720 5721 5721 5721 5721 5721 5721 5721 5722 5722 5723 5723 5723 5723 5724 5724 5724 5725 5725 5725 5726 5726 5727 5727 5728 5728 5729 5729 5729 5730 5730 5731 5731 5732 5732 5732 5733 5734 5734 5733 5733 5733 5733
5709 5709 5710 5710 5710 5710 5711 5712 5713 5714 5714 5715 5715 5716 5717 5718 5718 5718 5717 5717 5717 5718 5719 5719 5720 5719 5719 5719 5719 5720 5720 5721 5721 5721 5722 5722 5723 5723 5723 5723 5723 5724 5724 5724 5725 5725 5726 5726 5726 5727 5727 5728 5728 5728 5729 5729 5730 5730 5731 5731 5730 5730 5730
5705 5706 5706 5706 5707 5707 5707 5708 5709 5711 5711 5712 5712 5712 5713 5714 5716 5716 5716 5716 5715 5715 5716 5716 5717 5717 5717 5717 5717 5717 5717 5718 5719 5719 5720 5720 5720 5721 5721 5721 5721 5721 5721 5722 5722 5722 5723 5723 5723 5723 5724 5724 5724 5725 5725 5725 5726 5726 5727 5727 5727 5727 5727
5700 5701 5701 5702 5702 5703 5703 5703 5704 5706 5707 5707 5707 5708 5709 5710 5711 5712 5713 5713 5713 5712 5712 5713 5714 5714 5714 5714 5714 5714 5714 5715 5716 5716 5717 5717 5718 5718 5718 5718 5719 5719 5719 5719 5719 5719 5720 5720 5720 5720 5720 5720 5720 5721 5721 5721 5721 5722 5722 5723 5723 5723 5723
5696 5697 5697 5697 5698 5698 5699 5699 5700 5701 5701 5702 5703 5704 5705 5706 5707 5708 5708 5709 5709 5709 5708 5709 5710 5710 5711 5711 5711 5711 5711 5711 5712 5713 5714 5714 5714 5714 5715 5715 5715 5716 5716 5715 5716 5716 5716 5716 5717 5717 5717 5717 5717 5717 5717 5717 5717 5718 5718 5718 5719 5719 5719
5691 5692 5693 5693 5694 5694 5694 5695 5695 5696 5696 5697 5698 5699 5700 5701 5702 5702 5703 5703 5704 5704 5705 5705 5705 5706 5707 5708 5708 5707 5707 5707 5708 5709 5710 5710 5711 5711 5711 5711 5712 5712 5712 5711 5712 5712 5712 5713 5713 5713 5713 5713 5713 5713 5713 5713 5713 5713 5714 5714 5714 5714 5714
5686 5687 5688 5688 5689 5689 5690 5690 5691 5691 5692 5692 5693 5694 5695 5696 5697 5697 5698 5698 5699 5699 5700 5701 5701 5701 5703 5704 5704 5704 5703 5704 5704 5705 5706 5706 5707 5708 5707 5707 5708 5707 5707 5707 5708 5708 5708 5709 5709 5709 5709 5709 5709 5709 5709 5709 5709 5709 5709 5709 5710 5710 5710
5681 5681 5682 5682 5683 5683 5684 5685 5685 5686 5687 5687 5688 5689 5690 5691 5692 5692 5692 5693 5694 5694 5695 5696 5696 5696 5697 5699 5700 5700 5699 5699 5700 5701 5702 5702 5702 5703 5704 5703 5703 5703 5703 5703 5703 5703 5703 5703 5704 5704 5704 5704 5704 5704 5704 5704 5704 5704 5704 5704 5704 5704 5704
5675 5675 5676 5676 5677 5677 5678 5678 5679 5680 5681 5681 5682 5683 5684 5686 5687 5686 5686 5687 5688 5689 5691 5692 5691 5691 5691 5692 5694 5695 5695 5695 5696 5696 5697 5697 5698 5699 5699 5699 5699 5699 5698 5698 5698 5698 5698 5698 5698 5698 5698 5698 5699 5699 5699 5699 5699 5698 5698 5698 5698 5698 5698
5669 5669 5670 5671 5671 5671 5672 5672 5673 5673 5674 5675 5676 5677 5678 5679 5680 5681 5680 5680 5681 5683 5685 5686 5686 5686 5686 5686 5687 5689 5689 5690 5691 5691 5691 5692 5692 5693 5693 5693 5693 5693 5694 5693 5692 5692 5692 5692 5692 5691 5692 5692 5692 5692 5692 5692 5692 5692 5692 5692 5692 5692 5692
5662 5663 5664 5664 5664 5665 5665 5666 5666 5667 5668 5669 5670 5671 5672 5672 5673 5673 5673 5673 5674 5676 5678 5680 5680 5680 5680 5680 5681 5682 5683 5684 5685 5685 5685 5686 5686 5686 5686 5686 5687 5687 5688 5687 5687 5687 5687 5686 5686 5685 5686 5686 5686 5686 5686 5685 5685 5685 5685 5685 5685 5685 5685
5656 5656 5657 5657 5658 5659 5659 5660 5661 5661 5662 5662 5663 5664 5665 5665 5666 5666 5667 5667 5667 5668 5672 5673 5673 5673 5673 5673 5673 5674 5675 5677 5678 5679 5679 5679 5679 5679 5679 5680 5680 5680 5680 5680 5680 5680 5680 5680 5679 5679 5679 5680 5680 5680 5679 5679 5678 5677 5677 5677 5677 5678 5677
5649 5649 5650 5651 5651 5652 5653 5654 5655 5655 5656 5656 5656 5657 5657 5659 5659 5659 5660 5661 5660 5662 5665 5666 5666 5666 5666 5666 5666 5666 5667 5669 5671 5672 5672 5672 5672 5672 5672 5673 5673 5672 5672 5672 5673 5673 5673 5672 5672 5672 5673 5673 5673 5672 5672 5672 5671 5670 5670 5670 5670 5669 5669
5642 5643 5643 5644 5644 5645 5646 5647 5647 5648 5649 5649 5650 5650 5651 5652 5653 5654 5654 5654 5654 5656 5658 5659 5659 5659 5660 5660 5659 5659 5660 5662 5663 5664 5664 5664 5665 5665 5665 5665 5665 5665 5664 5665 5665 5665 5665 5665 5664 5665 5665 5665 5665 5665 5664 5663 5662 5662 5663 5662 5662 5661 5661
5635 5636 5637 5637 5638 5638 5639 5639 5640 5641 5642 5642 5643 5644 5644 5645 5646 5647 5648 5648 5649 5651 5651 5651 5651 5652 5652 5653 5653 5653 5654 5655 5655 5656 5657 5657 5657 5658 5658 5658 5658 5657 5657 5658 5658 5658 5657 5656 5656 5657 5657 5656 5656 5656 5656 5654 5654 5654 5654 5654 5653 5653 5652
5629 5629 5630 5630 5631 5631 5631 5632 5633 5633 5634 5635 5636 5636 5637 5638 5638 5640 5641 5643 5644 5644 5643 5642 5643 5643 5644 5645 5646 5646 5647 5647 5647 5648 5649 5649 5649 5650 5649 5649 5650 5650 5650 5650 5650 5650 5649 5648 5648 5648 5648 5648 5647 5647 5647 5646 5646 5646 5646 5645 5644 5644 5643
5621 5622 5623 5623 5624 5624 5624 5625 5625 5626 5627 5627 5628 5629 5629 5630 5632 5634 5635 5636 5636 5637 5636 5635 5636 5636 5636 5638 5638 5638 5639 5639 5639 5640 5641 5641 5641 5641 5641 5641 5642 5642 5642 5642 5642 5642 5641 5640 5640 5640 5639 5639 5639 5638 5638 5638 5638 5638 5638 5637 5637 5636 5635
5614 5615 5616 5616 5617 5617 5617 5618 5618 5618 5619 5620 5620 5621 5622 5624 5626 5628 5628 5628 5628 5629 5629 5628 5629 5630 5630 5630 5630 5630 5631 5632 5632 5632 5633 5633 5633 5633 5633 5633 5634 5634 5634 5635 5634 5633 5633 5632 5632 5632 5631 5630 5630 5629 5629 5629 5629 5629 5629 5629 5629 5628 5628
5606 5607 5608 5608 5609 5610 5610 5610 5611 5611 5612 5612 5612 5614 5616 5617 5619 5621 5621 5621 5621 5622 5622 5622 5623 5623 5623 5623 5623 5624 5624 5624 5625 5625 5626 5626 5626 5625 5624 5625 5627 5627 5626 5626 5626 5625 5625 5625 5624 5623 5623 5622 5621 5621 5621 5621 5621 5621 5620 5620 5620 5620 5619
5599 5600 5600 5600 5601 5602 5602 5603 5603 5604 5604 5604 5604 5607 5609 5610 5612 5614 5613 5614 5615 5615 5615 5616 5616 5616 5616 5616 5616 5617 5617 5617 5617 5618 5618 5618 5618 5618 5617 5617 5619 5620 5619 5618 5618 5617 5617 5617 5616 5616 5615 5614 5613 5613 5612 5613 5613 5612 5612 5611 5611 5610 5610
5592 5592 5593 5593 5593 5594 5595 5596 5596 5596 5596 5597 5597 5600 5602 5603 5604 5606 5606 5606 5607 5608 5608 5609 5609 5609 5609 5609 5610 5610 5610 5610 5610 5611 5611 5611 5611 5611 5610 5610 5612 5612 5611 5610 5610 5610 5610 5609 5608 5608 5607 5606 5605 5605 5605 5604 5604 5603 5603 5602 5602 5601 5601
5585 5585 5585 5586 5586 5587 5588 5588 5589 5589 5590 5590 5590 5592 5595 5596 5597 5597 5598 5600 5600 5600 5600 5601 5602 5602 5602 5602 5603 5603 5603 5603 5603 5604 5604 5604 5604 5604 5603 5603 5604 5604 5603 5603 5602 5602 5602 5601 5600 5599 5599 5598 5597 5597 5596 5596 5595 5594 5594 5593 5593 5593 5592